Wind_Speed
59 60 60 60 61 61 59 55 51 49 48 47 46 43 40 38 34 32 29 26 24 21 19 17 15 13 11 10 10 9 9 8 8 7 6 6 6 5 5 5 5 4 4 4 4 3 3 3 3
59 60 61 61 63 63 59 54 51 50 49 49 48 45 42 39 35 33 31 28 26 23 20 18 16 14 13 12 11 11 10 9 9 9 8 7 7 6 6 6 5 5 5 4 4 4 4 3 3
58 60 60 62 63 62 57 53 50 50 50 50 50 47 43 39 36 35 33 30 28 25 22 20 18 16 14 13 13 12 11 11 10 10 9 9 8 8 7 6 6 6 5 5 5 4 4 4 4
58 59 60 62 62 58 55 53 51 51 52 51 50 48 45 41 37 35 33 32 29 27 24 22 19 17 16 15 14 13 13 12 12 11 11 10 9 9 8 7 7 6 6 6 5 5 4 4 4
58 59 61 61 59 57 54 54 53 52 53 52 50 48 45 42 39 37 35 32 30 28 26 23 21 19 17 16 15 14 14 13 13 13 12 11 11 10 9 8 8 7 7 6 6 5 5 4 4
58 60 61 60 57 55 54 54 55 53 52 51 50 48 47 43 41 39 37 35 32 30 27 25 22 20 19 18 17 16 15 15 15 14 14 13 12 11 10 9 9 8 8 7 7 6 6 5 5
58 60 59 57 55 55 54 53 53 54 52 51 50 48 46 43 42 41 39 37 34 32 29 26 24 22 20 19 18 17 16 16 16 16 15 14 13 12 12 11 10 9 9 8 8 7 7 6 6
57 58 59 57 56 54 53 53 52 53 53 51 51 49 46 44 41 41 39 38 36 34 31 28 25 23 22 20 19 18 18 17 17 17 16 15 15 14 13 12 12 11 10 10 9 8 8 7 7
57 58 59 56 55 53 52 53 52 52 52 52 52 51 46 45 42 39 39 38 37 35 32 30 27 25 23 22 20 19 19 19 18 18 17 16 16 15 14 13 13 12 11 11 10 10 9 9 9
56 58 56 55 54 53 53 52 53 53 52 53 52 50 49 44 43 40 37 37 37 35 33 31 29 26 24 23 22 21 20 20 20 19 18 18 17 16 15 15 14 13 13 12 12 11 11 11 11
54 55 54 55 54 53 52 52 52 52 52 52 51 50 49 46 42 41 38 36 37 37 35 33 30 28 25 24 23 22 21 21 21 21 20 19 19 18 17 16 15 15 14 13 13 13 13 13 13
53 54 54 54 54 52 52 52 52 52 51 50 51 50 48 46 44 41 40 39 38 37 35 34 31 28 26 25 24 23 22 22 22 22 21 21 21 20 19 18 17 16 16 15 15 15 15 15 16
52 53 54 54 54 51 51 51 51 50 49 49 49 48 48 46 46 44 42 39 38 37 34 33 32 30 28 26 25 24 24 23 23 23 23 22 22 21 21 20 19 18 18 17 17 17 17 18 18
52 54 54 53 53 51 50 50 50 50 49 49 49 47 46 47 46 46 44 42 40 38 36 34 33 32 30 29 27 26 25 24 24 24 24 23 23 23 23 22 21 21 20 20 19 20 20 20 21
51 54 54 53 53 51 50 50 49 49 49 49 49 48 48 46 45 45 44 43 41 39 39 36 35 33 32 30 29 28 27 26 26 25 25 25 25 25 25 24 24 23 23 23 22 22 23 23 23
48 52 53 53 50 50 50 49 48 49 49 49 49 48 47 45 44 45 44 43 43 42 40 38 37 36 34 32 32 31 29 28 27 27 27 27 27 27 26 26 26 26 26 26 26 26 26 26 26
46 48 51 52 49 50 50 49 47 47 48 49 49 48 48 46 44 44 44 43 43 43 42 40 39 39 36 34 33 32 30 30 29 29 29 29 29 29 29 28 28 28 28 28 28 29 29 29 29
44 46 47 48 48 47 48 49 47 48 48 47 47 48 48 47 45 44 44 44 43 42 42 42 40 40 38 36 35 33 32 32 31 31 31 30 30 31 31 31 31 31 31 31 31 32 32 32 32
38 42 42 43 44 44 45 46 46 46 49 47 46 46 46 47 47 46 44 44 43 43 43 43 43 40 38 36 35 35 34 33 33 34 33 33 33 33 33 33 33 33 34 34 35 35 35 35 35
36 40 40 41 41 43 44 45 44 43 46 46 44 45 45 45 46 46 45 44 43 43 42 42 42 42 40 38 36 37 37 36 35 35 35 35 35 35 35 36 36 36 36 37 37 38 38 38 39
33 35 37 37 37 39 42 43 44 42 42 43 44 43 43 44 45 44 45 44 44 44 44 42 40 40 39 39 38 37 38 37 37 37 37 37 37 37 37 38 38 39 39 39 40 41 41 41 41
27 31 33 34 34 35 38 40 43 44 40 39 39 40 41 42 42 43 44 44 44 44 43 43 42 42 41 39 39 37 37 38 38 39 38 38 39 40 40 40 41 41 42 42 43 43 43 43 43
23 26 29 32 32 34 35 37 39 44 42 39 38 38 39 38 39 40 42 43 43 43 43 43 42 43 43 42 41 40 39 40 40 39 39 40 40 40 41 41 42 42 43 44 44 45 45 45 45
21 23 25 28 30 32 33 34 35 37 38 37 37 36 37 37 37 37 40 42 43 43 43 43 43 43 44 44 44 43 42 42 42 43 43 42 42 43 43 42 43 44 45 45 45 46 46 47 47
20 22 23 25 27 29 30 30 31 31 33 35 36 36 35 36 38 38 37 38 40 41 42 43 43 44 44 44 45 45 45 45 44 44 44 44 45 44 45 45 46 46 47 47 48 48 49 49 49
19 21 22 22 22 24 26 26 27 28 30 32 34 35 36 36 37 38 38 38 39 40 41 42 43 44 44 45 46 46 46 46 46 46 46 46 47 47 47 48 49 49 50 50 50 50 50 50 50
19 20 20 20 20 21 23 23 24 25 27 29 31 33 35 36 36 36 38 39 39 40 41 42 43 44 45 46 47 47 47 46 46 47 47 48 48 49 49 50 50 51 51 51 51 50 50 49 49
16 18 18 19 19 20 21 22 23 24 25 28 30 31 33 33 34 35 36 37 39 40 41 42 43 44 45 45 46 47 47 47 47 46 47 48 49 49 49 49 49 49 50 50 50 50 50 49 49
14 16 18 18 19 19 20 21 21 22 24 26 28 30 32 33 34 35 36 37 38 39 40 42 42 43 43 44 45 46 46 47 47 48 48 49 48 49 49 49 49 49 49 50 50 50 50 50 49
15 16 17 19 19 19 20 20 21 22 23 25 26 28 30 32 33 35 36 37 37 38 39 40 41 42 43 43 44 45 46 46 47 48 48 48 48 48 48 48 48 48 49 49 49 49 49 49 49
Wind_Direction
217 218 217 217 218 217 214 211 210 206 206 205 208 210 212 214 214 214 215 215 216 217 218 219 219 218 218 217 217 217 219 219 219 222 228 234 243 250 257 262 264 268 269 270 273 280 291 305 320
216 217 217 217 218 217 212 210 210 208 208 208 208 208 210 212 212 213 214 214 215 216 217 218 219 218 218 218 217 218 220 221 220 223 229 235 242 247 253 258 261 263 265 267 272 279 287 297 308
215 216 217 218 218 217 213 210 211 210 209 209 207 207 208 209 210 210 212 213 214 216 216 217 218 218 218 218 218 220 221 221 222 224 229 234 240 244 249 255 258 261 263 267 272 277 283 293 303
214 215 216 218 218 216 213 211 211 210 208 208 208 206 207 207 208 209 211 211 213 215 216 217 218 218 218 219 220 220 221 222 223 226 229 234 239 243 247 252 257 260 262 266 270 273 278 289 300
213 214 216 217 216 214 212 211 213 212 209 209 208 206 206 206 207 207 208 210 213 214 215 217 218 219 219 220 221 220 221 223 225 227 231 235 240 243 246 249 254 258 261 263 266 269 274 284 294
212 213 215 215 214 212 211 211 213 214 212 210 208 207 206 206 206 207 207 208 211 212 214 216 218 219 220 221 222 222 223 225 227 229 232 235 239 242 244 247 252 255 258 260 263 267 273 281 290
213 213 215 214 212 212 211 211 212 213 212 210 208 206 203 202 206 206 207 207 209 212 214 216 217 219 220 222 223 224 226 228 229 231 234 236 238 241 244 247 250 252 255 258 262 267 273 279 287
212 213 212 212 210 210 210 212 212 213 213 212 209 207 204 204 205 203 205 207 209 211 213 214 216 218 220 223 225 226 227 230 232 233 235 237 240 242 245 248 250 252 255 258 262 267 272 279 286
211 212 211 210 210 208 209 212 212 213 213 213 211 209 208 207 207 205 206 207 208 210 212 214 216 218 220 223 226 227 229 232 234 235 237 239 242 244 246 249 251 254 257 260 265 268 272 277 284
210 211 209 208 209 209 210 212 212 214 214 213 212 211 212 209 208 210 209 209 210 210 212 214 216 218 221 224 226 228 231 233 235 238 240 242 244 246 248 250 252 255 259 262 267 271 274 278 283
209 209 207 208 208 208 210 211 212 213 215 215 214 214 215 214 211 212 214 213 210 211 211 214 216 218 221 224 226 229 232 234 237 239 241 243 245 247 249 251 254 257 260 264 268 272 276 280 284
207 206 206 207 207 208 209 211 212 213 215 216 216 217 217 218 215 214 217 217 215 213 212 214 216 219 223 225 227 230 233 235 237 240 242 244 247 249 251 253 256 259 262 265 268 272 276 281 284
205 205 206 207 207 207 208 210 211 212 215 216 217 218 218 218 219 218 218 219 217 214 214 215 218 222 224 226 229 232 235 237 239 241 243 245 247 250 252 255 257 260 263 267 270 274 278 281 285
204 204 205 205 206 206 207 208 211 211 214 217 218 219 220 221 221 221 221 222 221 219 217 218 220 224 226 229 231 233 236 239 241 243 244 246 248 251 254 256 258 261 264 267 271 275 279 281 284
204 205 205 205 205 204 206 207 210 212 214 216 218 220 222 223 223 223 225 225 225 224 222 221 224 227 230 232 233 235 238 242 243 245 247 248 249 251 254 257 259 262 265 269 272 275 278 280 283
204 206 205 204 204 204 205 206 209 212 213 216 218 220 222 224 224 225 227 227 227 227 227 227 227 230 232 234 237 239 240 243 246 248 249 250 252 253 255 258 260 263 266 269 272 275 278 281 283
203 204 205 205 205 204 205 206 207 210 213 216 219 221 223 224 225 227 228 228 229 229 229 229 229 230 232 235 239 242 244 246 248 250 252 253 255 256 257 259 261 263 266 269 272 275 278 280 281
202 204 206 206 207 206 206 207 209 212 213 215 218 221 223 226 227 229 230 231 231 232 231 232 233 233 233 236 238 242 246 248 249 252 254 256 257 258 259 261 263 265 267 270 272 275 277 279 281
202 204 206 206 206 207 206 207 208 211 213 215 218 221 223 225 227 229 231 232 233 234 235 236 235 237 238 240 243 244 246 250 251 252 254 257 259 260 262 264 265 267 269 271 273 275 277 279 280
200 204 207 208 208 209 210 211 208 208 211 215 218 222 223 225 227 229 231 233 233 234 235 237 238 240 241 242 245 246 247 250 253 255 256 258 260 261 263 265 266 269 271 272 274 275 277 279 280
198 203 206 209 211 213 215 216 213 211 212 216 219 221 223 225 227 228 232 234 236 238 240 241 243 244 246 247 247 249 249 252 254 255 257 259 260 262 263 265 268 270 272 273 274 275 277 279 281
195 201 205 208 211 216 217 219 217 215 216 215 217 221 223 226 229 231 234 236 238 240 243 245 248 248 249 250 250 252 252 253 256 257 259 261 262 263 264 266 268 270 272 274 275 276 278 279 281
194 201 206 209 214 218 219 222 220 222 222 219 219 222 225 228 230 232 235 237 239 241 244 246 249 249 250 250 252 253 256 256 257 259 261 263 265 266 266 267 269 271 273 274 276 277 278 280 282
194 200 207 212 217 222 223 226 223 224 225 225 224 225 228 230 231 233 235 238 240 241 243 246 248 250 251 253 254 255 257 258 259 261 264 265 267 268 269 270 272 272 274 275 277 278 279 281 282
194 199 205 212 219 223 224 230 228 227 229 230 230 231 233 234 233 235 238 240 241 243 245 247 249 251 253 255 257 257 258 259 261 263 264 265 267 268 270 270 272 273 275 276 277 279 280 281 282
193 199 205 212 218 222 226 230 228 230 232 233 234 235 237 237 238 239 240 242 242 243 245 247 249 251 252 254 256 258 259 260 261 263 265 266 268 269 270 271 273 274 275 276 277 278 279 281 282
197 203 211 219 225 229 229 229 229 232 235 236 237 237 239 240 241 241 243 245 245 246 247 248 249 250 253 254 256 258 259 260 262 264 266 268 269 271 272 273 273 274 275 276 277 278 279 280 281
203 209 214 220 226 231 233 233 233 234 237 238 239 239 240 241 243 243 245 246 247 248 248 249 249 251 253 255 256 258 259 261 263 264 266 267 269 270 271 273 273 273 274 276 277 278 279 280 281
208 209 215 222 229 233 235 235 236 237 238 239 240 240 241 241 243 244 245 246 247 248 249 250 251 253 254 255 256 257 258 260 262 264 266 267 269 270 271 272 273 274 275 276 277 278 279 280 281
212 215 221 227 231 235 237 238 237 239 238 239 240 241 242 243 243 243 244 246 247 249 250 251 252 253 254 255 256 257 259 260 262 263 265 266 268 270 272 273 274 276 276 277 278 279 280 280 281
Height
5761 5767 5774 5780 5786 5790 5800 5812 5820 5826 5830 5835 5839 5844 5849 5854 5860 5866 5868 5870 5873 5876 5878 5880 5882 5883 5884 5886 5887 5888 5889 5890 5890 5891 5891 5891 5892 5892 5891 5891 5891 5890 5889 5889 5888 5888 5887 5887 5886
5751 5757 5765 5771 5775 5782 5795 5807 5814 5820 5825 5829 5834 5839 5844 5850 5855 5860 5863 5867 5870 5873 5875 5877 5879 5881 5883 5884 5885 5886 5887 5888 5889 5890 5890 5890 5891 5891 5890 5890 5890 5889 5889 5888 5888 5887 5887 5886 5885
5741 5748 5756 5761 5766 5777 5793 5803 5810 5814 5818 5823 5828 5834 5840 5846 5851 5855 5859 5863 5866 5869 5872 5875 5877 5879 5881 5882 5884 5885 5886 5887 5888 5888 5889 5889 5889 5889 5889 5889 5889 5888 5888 5888 5887 5887 5886 5885 5884
5732 5740 5747 5752 5761 5776 5789 5797 5802 5806 5811 5816 5822 5829 5835 5842 5847 5851 5855 5859 5862 5866 5869 5871 5874 5876 5878 5880 5881 5883 5884 5885 5886 5887 5887 5888 5888 5888 5888 5888 5888 5887 5887 5886 5886 5886 5885 5884 5883
5724 5732 5737 5744 5757 5771 5781 5788 5793 5798 5804 5811 5817 5824 5831 5837 5842 5846 5850 5854 5858 5862 5865 5868 5871 5873 5876 5877 5879 5881 5882 5883 5884 5885 5886 5886 5887 5887 5887 5886 5886 5886 5886 5885 5885 5885 5884 5883 5882
5715 5721 5729 5739 5753 5765 5773 5780 5785 5792 5798 5805 5812 5819 5825 5832 5836 5841 5845 5849 5854 5858 5861 5864 5867 5870 5873 5875 5877 5878 5880 5881 5882 5883 5884 5884 5885 5885 5885 5885 5885 5885 5884 5884 5884 5883 5883 5882 5881
5707 5715 5723 5736 5748 5756 5766 5773 5779 5786 5793 5800 5808 5814 5820 5826 5831 5835 5839 5844 5848 5853 5857 5860 5864 5867 5869 5872 5874 5875 5877 5878 5880 5881 5881 5882 5883 5883 5883 5883 5883 5883 5883 5882 5882 5882 5881 5880 5880
5700 5709 5717 5728 5739 5750 5760 5766 5773 5780 5788 5795 5802 5809 5815 5821 5826 5830 5833 5838 5843 5848 5852 5856 5859 5863 5866 5868 5870 5872 5874 5876 5877 5878 5879 5880 5880 5881 5881 5881 5881 5881 5881 5880 5880 5880 5879 5879 5878
5692 5701 5710 5723 5734 5745 5753 5759 5767 5774 5781 5788 5796 5804 5810 5815 5820 5824 5828 5832 5837 5842 5847 5852 5855 5859 5862 5864 5867 5869 5871 5873 5874 5875 5876 5877 5878 5878 5878 5879 5879 5879 5878 5878 5878 5877 5877 5876 5876
5684 5693 5707 5719 5729 5738 5745 5752 5761 5768 5775 5783 5791 5797 5803 5809 5815 5820 5824 5828 5832 5838 5842 5847 5851 5854 5858 5861 5863 5865 5867 5869 5871 5872 5873 5874 5875 5875 5875 5876 5876 5876 5876 5876 5875 5875 5874 5874 5873
5678 5690 5703 5712 5721 5730 5737 5745 5754 5762 5771 5779 5786 5793 5798 5804 5810 5816 5820 5824 5828 5832 5837 5842 5846 5850 5853 5856 5859 5861 5863 5865 5867 5868 5869 5870 5871 5872 5872 5873 5873 5873 5873 5873 5872 5872 5872 5871 5870
5673 5685 5694 5705 5714 5722 5731 5739 5748 5756 5765 5773 5781 5787 5793 5799 5805 5811 5816 5819 5823 5827 5831 5836 5840 5845 5848 5852 5855 5857 5859 5861 5863 5864 5865 5867 5868 5868 5869 5869 5870 5870 5870 5869 5869 5869 5868 5868 5867
5668 5679 5688 5698 5707 5716 5725 5733 5742 5751 5759 5767 5775 5781 5788 5794 5800 5805 5811 5815 5819 5823 5827 5831 5835 5839 5843 5847 5850 5852 5855 5857 5858 5860 5861 5863 5864 5865 5865 5866 5866 5866 5866 5866 5865 5865 5865 5864 5863
5663 5673 5683 5692 5701 5710 5719 5729 5737 5746 5754 5761 5769 5776 5782 5788 5794 5799 5805 5810 5814 5818 5822 5826 5830 5834 5838 5841 5844 5847 5850 5852 5853 5855 5857 5858 5859 5860 5861 5862 5862 5862 5862 5862 5861 5861 5860 5860 5859
5659 5668 5677 5686 5695 5704 5714 5723 5732 5741 5748 5756 5763 5770 5776 5781 5788 5794 5799 5805 5809 5814 5817 5821 5826 5829 5832 5836 5839 5841 5844 5846 5848 5850 5852 5853 5854 5855 5856 5857 5857 5857 5857 5857 5857 5856 5856 5855 5854
5654 5662 5671 5682 5690 5699 5709 5718 5727 5734 5742 5749 5756 5763 5769 5775 5782 5788 5793 5799 5803 5808 5812 5816 5821 5824 5826 5830 5833 5835 5838 5840 5842 5844 5846 5847 5849 5850 5851 5851 5852 5852 5852 5852 5852 5851 5851 5850 5849
5649 5658 5668 5678 5685 5694 5704 5713 5721 5728 5736 5743 5750 5756 5763 5769 5775 5781 5787 5792 5797 5802 5806 5810 5814 5818 5821 5823 5826 5829 5832 5834 5836 5838 5840 5841 5842 5844 5844 5845 5846 5846 5846 5846 5846 5846 5845 5844 5843
5649 5657 5665 5674 5682 5690 5699 5708 5716 5723 5730 5738 5744 5750 5757 5763 5769 5774 5780 5785 5790 5795 5799 5804 5807 5811 5814 5816 5819 5823 5825 5828 5829 5831 5833 5834 5836 5837 5838 5838 5839 5839 5839 5839 5839 5839 5838 5837 5836
5649 5657 5664 5672 5679 5687 5695 5703 5710 5717 5724 5731 5738 5745 5751 5757 5762 5768 5774 5778 5783 5788 5792 5797 5800 5804 5807 5810 5812 5815 5818 5820 5822 5824 5825 5827 5828 5830 5831 5831 5832 5832 5832 5832 5832 5831 5831 5829 5828
5647 5655 5662 5670 5677 5684 5690 5697 5704 5711 5719 5726 5732 5739 5745 5750 5756 5762 5767 5772 5777 5782 5785 5789 5793 5797 5800 5802 5805 5808 5811 5813 5815 5816 5818 5819 5820 5822 5823 5824 5824 5824 5824 5824 5823 5823 5822 5821 5820
5648 5655 5662 5669 5675 5680 5687 5693 5700 5707 5713 5720 5726 5733 5738 5744 5750 5756 5761 5766 5771 5775 5779 5782 5785 5789 5792 5795 5798 5800 5802 5804 5806 5808 5810 5811 5812 5813 5814 5815 5815 5815 5815 5815 5814 5814 5814 5813 5811
5649 5655 5662 5668 5673 5678 5684 5691 5697 5703 5709 5715 5721 5728 5733 5739 5745 5750 5754 5759 5764 5767 5771 5775 5778 5781 5784 5787 5790 5792 5794 5796 5798 5800 5801 5802 5803 5804 5805 5805 5806 5806 5806 5805 5805 5804 5804 5803 5801
5650 5655 5661 5667 5672 5677 5682 5688 5695 5699 5705 5712 5717 5723 5728 5734 5739 5743 5748 5752 5756 5760 5764 5767 5770 5773 5776 5779 5781 5784 5786 5788 5789 5791 5792 5793 5794 5794 5795 5795 5796 5796 5796 5796 5795 5794 5794 5792 5791
5650 5655 5660 5665 5670 5676 5681 5685 5692 5697 5703 5708 5712 5717 5722 5727 5732 5736 5741 5745 5748 5752 5756 5759 5762 5765 5768 5770 5772 5775 5777 5778 5780 5782 5783 5783 5784 5785 5785 5786 5786 5786 5786 5786 5785 5784 5783 5782 5780
5651 5657 5661 5664 5668 5674 5678 5682 5689 5694 5699 5703 5707 5712 5717 5721 5725 5729 5734 5738 5741 5744 5748 5751 5754 5756 5759 5761 5764 5765 5767 5769 5770 5772 5773 5774 5774 5774 5775 5776 5776 5776 5775 5775 5774 5773 5772 5771 5769
5652 5657 5662 5665 5668 5672 5675 5679 5687 5690 5694 5698 5702 5706 5710 5715 5719 5723 5726 5730 5733 5736 5739 5742 5745 5747 5750 5752 5754 5756 5757 5759 5760 5761 5762 5763 5763 5764 5764 5764 5764 5764 5764 5763 5763 5762 5761 5759 5758
5652 5656 5660 5664 5666 5670 5673 5678 5683 5686 5689 5693 5697 5701 5704 5708 5712 5715 5718 5721 5724 5727 5730 5733 5736 5738 5740 5742 5744 5746 5747 5748 5750 5751 5752 5752 5753 5753 5753 5753 5753 5752 5752 5752 5751 5750 5749 5747 5746
5653 5655 5658 5662 5664 5667 5671 5675 5679 5682 5685 5688 5691 5694 5697 5701 5704 5707 5710 5713 5716 5718 5721 5723 5726 5728 5730 5732 5734 5735 5736 5738 5739 5740 5741 5741 5741 5741 5741 5741 5741 5740 5740 5739 5739 5738 5737 5736 5734
5652 5655 5657 5659 5662 5665 5667 5673 5675 5677 5679 5681 5684 5687 5690 5694 5697 5699 5702 5705 5707 5709 5712 5714 5716 5718 5720 5722 5723 5724 5726 5727 5728 5728 5729 5730 5730 5730 5730 5729 5729 5728 5728 5727 5726 5725 5725 5723 5722
5650 5652 5655 5657 5659 5661 5664 5670 5670 5671 5673 5675 5678 5680 5683 5686 5689 5691 5694 5696 5698 5700 5702 5704 5706 5708 5709 5711 5712 5714 5715 5716 5716 5717 5718 5718 5718 5718 5718 5718 5717 5717 5716 5715 5715 5713 5712 5711 5709